This demonstration page uses our WeatherBlox Daily Observations layout. Learn more.

Left ArrowRight Arrow

Hourly Observations for April 3, 2017

Temp ( °F °C ) Dew Point ( °F °C ) Humidity (%) Winds ( mph kmh ) Pressure ( in mb ) Visibility ( mi km ) Precip ( " mm )
12:08 am 00:08 Mostly Cloudy 61 16 55 13 83 83 W 8 13 29.71 1006 10 16 0.00 0.00
12:29 am 00:29 Cloudy 60 15.6 55 12.8 84 84 W 8 13 29.71 1006 10 16 0.00 0.00
12:53 am 00:53 Cloudy 61 16.1 55 12.8 81 81 W 9 15 29.68 1005 8 13 0.00 0.00
1:53 am 01:53 Cloudy 59 15 54 12.2 83 83 W 12 19 29.67 1005 8 13 0.00 0.00
2:53 am 02:53 Cloudy 59 15 53 11.7 81 81 W 10 17 29.65 1004 8 13 0.00 0.00
3:26 am 03:26 Cloudy 57 14 52 11 82 82 SW 6 9 29.65 1004 10 16 0.00 0.00
3:53 am 03:53 Cloudy 58 14.4 51 10.6 78 78 W 14 22 29.66 1004 10 16 0.00 0.00
4:53 am 04:53 Mostly Cloudy 58 14.4 51 10.6 78 78 WNW 7 11 29.65 1004 10 16 0.00 0.00
5:46 am 05:46 Mostly Clear 55 13 50 10 82 82 W 7 11 29.68 1005 10 16 0.00 0.00
5:53 am 05:53 Mostly Clear 56 13.3 50 10 81 81 W 5 7 29.66 1004 10 16 0.00 0.00
6:53 am 06:53 Mostly Clear 56 13.3 50 10 81 81 SSW 6 9 29.67 1005 10 16 0.00 0.00
7:53 am 07:53 Sunny 55 12.8 51 10.6 87 87 Calm 29.68 1005 10 16 0.00 0.00
8:53 am 08:53 Sunny 58 14.4 51 10.6 78 78 SSW 5 7 29.69 1006 10 16 0.00 0.00
9:53 am 09:53 Sunny 61 16.1 50 10 67 67 S 3 6 29.69 1005 10 16 0.00 0.00
10:53 am 10:53 Sunny 67 19.4 51 10.6 57 57 SW 5 7 29.69 1005 10 16 0.00 0.00
11:53 am 11:53 Sunny 68 20 51 10.6 55 55 WSW 6 9 29.69 1006 10 16 0.00 0.00
12:53 pm 12:53 Sunny 70 21.1 51 10.6 51 51 SSW 6 9 29.68 1005 10 16 0.00 0.00
1:53 pm 13:53 Sunny 73 22.8 51 10.6 46 46 VRB 5 7 29.68 1005 10 16 0.00 0.00
2:53 pm 14:53 Sunny 76 24.4 50 10 40 40 VRB 3 6 29.66 1005 10 16 0.00 0.00
3:53 pm 15:53 Sunny 77 25 51 10.6 40 40 S 7 11 29.65 1004 10 16 0.00 0.00
4:53 pm 16:53 Sunny 78 25.6 49 9.4 36 36 WSW 7 11 29.64 1004 10 16 0.00 0.00
5:53 pm 17:53 Sunny 79 26.1 47 8.3 32 32 VRB 7 11 29.65 1004 10 16 0.00 0.00
6:53 pm 18:53 Sunny 79 26.1 47 8.3 32 32 WSW 5 7 29.65 1004 10 16 0.00 0.00
7:53 pm 19:53 Mostly Clear 77 25 45 7.2 32 32 SSW 3 6 29.65 1004 10 16 0.00 0.00
8:53 pm 20:53 Clear 70 21.1 51 10.6 51 51 E 5 7 29.67 1005 10 16 0.00 0.00
9:53 pm 21:53 Mostly Clear 69 20.6 53 11.7 57 57 Calm 29.70 1006 10 16 0.00 0.00
10:53 pm 22:53 Mostly Clear 65 18.3 54 12.2 68 68 ESE 7 11 29.69 1005 10 16 0.00 0.00
11:53 pm 23:53 Mostly Clear 66 18.9 56 13.3 70 70 SE 8 13 29.68 1005 10 16 0.00 0.00

Powered by Vaisala Xweather